{"data":{"norad_id":65786,"intl_designator":"2025-217AA","name":"KUIPER-00173","alt_names":[],"object_type":"PAYLOAD","status":"ACTIVE","operator":null,"country":"US","launch_date":"2025-09-25","launch_site_code":"AFETR","launch_vehicle":null,"mission":null,"orbit_class":"UNKNOWN","rcs_meters":null,"size_class":null,"mass_kg":null,"dimensions":null,"purposes":[],"wikipedia_slug":null,"has_3d_model":false,"image_url":null,"decayed_at":null,"tle_current":{"epoch":"2026-05-25T03:18:29.932416Z","epoch_age_seconds":59247,"freshness":"FRESH","line1":"1 65786U 25217AA  26145.13784644  .00001877  00000+0  27516-3 0  9990","line2":"2 65786  51.9008  55.0558 0001199  72.0112 288.0980 14.79938521 36337","mean_motion":14.79938521,"eccentricity":0.0001199,"inclination_deg":51.9008,"raan_deg":55.0558,"arg_perigee_deg":72.0112,"mean_anomaly_deg":288.098,"bstar":0.00027516,"rev_number":3633,"period_min":97.301339181778,"perigee_km":628.67798294171,"apogee_km":630.35841865886,"semimajor_km":7007.6552008003,"source":"CELESTRAK","updated_at":"2026-05-25T13:38:05.691277Z"}}}